Regional Weather Roundup
Issued by NWS

Home | Current Version | Previous Version | Text Only | Print | Product List | Glossary On
Versions: 1 2 3 4 5 6 7 8 9 10 11 12 13 14 15 16 17 18 19 20 21 22 23 24 25 26 27 28 29 30 31 32 33 34 35 36 37 38 39 40 41 42 43 44 45 46 47 48 49 50
000
ASUS45 KABQ 260610
RWRNM
NEW MEXICO REGIONAL WEATHER ROUNDUP
NATIONAL WEATHER SERVICE ALBUQUERQUE NM
1200 AM MDT THU MAY 26 2016

NOTE: "FAIR" MEANS FEW OR NO CLOUDS BELOW 12,000 FEET AGL WITH NO
       SIGNIFICANT WEATHER OR OBSTRUCTIONS TO VISION.

      THIS PRODUCT IS RELEASED AS TWO VERSIONS.  ONE VERSION NEAR
      THE TOP OF THE HOUR CONTAINING PRELIMINARY DATA FROM ALBUQUERQUE
      AND OTHER STATIONS.  A FINAL VERSION WITH ADDITIONAL DATA IS
      ISSUED ABOUT 10 MINUTES AFTER THE HOUR.

NMZ501-503-504-510>518-260700-
NORTHWEST PLATEAU/NORTHCENTRAL MOUNTAINS

CITY           SKY/WX    TMP DP  RH WIND       PRES   REMARKS
FARMINGTON     FAIR      59  13  16 W10       29.98R
6HR MIN TEMP:  59; 6HR MAX TEMP:  73;

LOS ALAMOS     MOCLDY    60  20  21 W3        30.09F
SANTA FE       FAIR      55  20  25 N9        30.03F
6HR MIN TEMP:  53; 6HR MAX TEMP:  75;

TAOS           FAIR      48  18  29 E6        30.10F
ANGEL FIRE     FAIR      35  23  61 CALM      30.18S

$$
NMZ402-403-502-505>509-260700-
WESTCENTRAL MOUNTAINS/SOUTHWEST MOUNTAINS

CITY           SKY/WX    TMP DP  RH WIND       PRES   REMARKS
GALLUP         FAIR      45  19  35 NE5       30.07S
6HR MIN TEMP:  43; 6HR MAX TEMP:  71;

GRANTS         FAIR      49  15  26 CALM      30.09F
SILVER CITY      N/A     64  14  14 W13       30.08F

$$
NMZ407-409-411-412-260700-
SOUTHERN DESERTS

CITY           SKY/WX    TMP DP  RH WIND       PRES   REMARKS
LORDSBURG      FAIR      68  19  15 W13G18    30.00F
DEMING         FAIR      71  16  12 W15G23    30.00S
6HR MIN TEMP:  71; 6HR MAX TEMP:  86;

LAS CRUCES     FAIR      71  11  10 W16G23    30.01F
HOLLOMAN AFB   FAIR      66  15  13 S8        29.96S
ALAMOGORDO     FAIR      64  14  14 S9        29.99S
T OR C         FAIR      71  13  10 SW13      29.98F
6HR MIN TEMP:  70; 6HR MAX TEMP:  84;


$$
NMZ519>523-260700-
CENTRAL VALLEYS/CENTRAL HIGHLANDS

CITY           SKY/WX    TMP DP  RH WIND       PRES   REMARKS
ALBUQUERQUE    FAIR      61  14  16 SE7       29.99R
6HR MIN TEMP:  60; 6HR MAX TEMP:  80;

DOUBLE EAGLE   FAIR      55  16  20 W9        30.02S
MORIARTY ARPT  FAIR      48  16  28 S6        30.05F
6HR MIN TEMP:  47; 6HR MAX TEMP:  76;

CLINES CORNERS FAIR      57  12  17 SW18      30.07F
6HR MIN TEMP:  54; 6HR MAX TEMP:  72;

BELEN          FAIR      64  13  14 W10       29.98S
6HR MIN TEMP:  60; 6HR MAX TEMP:  84;

SOCORRO        FAIR      59  20  22 S7        29.98S
6HR MIN TEMP:  59; 6HR MAX TEMP:  85;


$$
NMZ524>526-539-540-260700-
SOUTHCENTRAL MOUNTAINS

CITY           SKY/WX    TMP DP  RH WIND       PRES   REMARKS
RUIDOSO          N/A     57  14  18 S6        30.14F

$$
NMZ527>531-260700-
NORTHEAST HIGHLANDS/NORTHEAST PLAINS

CITY           SKY/WX    TMP DP  RH WIND       PRES   REMARKS
LAS VEGAS      FAIR      51  20  29 SW7       30.06F
6HR MIN TEMP:  48; 6HR MAX TEMP:  72;

RATON          FAIR      52  18  26 NE8       30.03S
6HR MIN TEMP:  48; 6HR MAX TEMP:  75;

CLAYTON        FAIR      56  24  29 W10       29.96S
6HR MIN TEMP:  56; 6HR MAX TEMP:  82;


$$
NMZ532>537-260700-
EASTCENTRAL PLAINS

CITY           SKY/WX    TMP DP  RH WIND       PRES   REMARKS
TUCUMCARI      FAIR      62  25  24 VRB6      29.89F
6HR MIN TEMP:  58; 6HR MAX TEMP:  89;

CANNON AFB     FAIR      58  30  33 CALM      29.94F
6HR MIN TEMP:  58; 6HR MAX TEMP:  88;

CLOVIS AIRPORT FAIR      61  32  33 CALM      29.94F

$$
NMZ028-029-538-260700-
SOUTHEAST PLAINS

CITY           SKY/WX    TMP DP  RH WIND       PRES   REMARKS
ROSWELL        FAIR      68  26  20 SW10      29.89F
6HR MIN TEMP:  68; 6HR MAX TEMP:  92;

ARTESIA        FAIR      72  28  20 S10       29.92R
CARLSBAD       FAIR      75  41  29 W3        29.91R
6HR MIN TEMP:  74; 6HR MAX TEMP:  94;

HOBBS          FAIR      77  39  25 S13       29.94S


$$



USA.gov is the U.S. government's official web portal to all federal, state and local government web resources and services.